Total_Precipitation_Accumulation
-0.14 -0.20 -0.30 -0.33 -0.28 -0.28 -0.21 -0.18 -0.29 -0.29 -0.31 -0.25 -0.23 -0.23 -0.12 -0.08 -0.08 0.00 0.00 0.00 0.00 -0.05 -0.18 -0.26 -0.05 -0.05 -0.04 0.03 0.07 0.07 0.12 0.12 0.10 0.10 0.09 0.14 0.14 0.16 0.20 0.14 0.14 0.12 0.10 0.12 0.16 0.16 0.06 0.05 0.04 0.04 0.02 0.02 0.04 0.04 0.02 -0.00 -0.00 -0.00 0.00 0.00 0.00 0.00 0.00 0.00 0.00 0.00 0.00 0.00 0.00 0.00 0.00 0.00 -0.00 -0.00 0.00 0.00 0.00 0.00 0.00 -0.00 -0.00 -0.01 -0.00 0.00 0.00 0.00 0.01 0.01 0.01 0.01 0.00 0.00 0.00 0.00 0.00 0.00 0.00 0.00 0.00 0.00 0.00 0.00 0.00
-0.13 -0.21 -0.30 -0.42 -0.35 -0.35 -0.24 -0.19 -0.27 -0.27 -0.35 -0.25 -0.24 -0.24 -0.15 -0.10 -0.10 0.00 0.00 0.00 0.00 -0.02 -0.14 -0.20 -0.04 -0.04 -0.03 0.05 0.08 0.08 0.11 0.13 0.14 0.14 0.10 0.14 0.14 0.17 0.18 0.14 0.14 0.14 0.13 0.13 0.15 0.15 0.14 0.03 0.01 0.01 0.01 0.01 0.03 0.03 0.02 0.00 0.00 0.00 0.00 0.00 0.00 0.00 0.00 0.00 0.00 0.00 0.00 0.00 0.00 0.00 0.00 0.00 0.00 0.00 0.00 0.00 0.00 0.00 0.00 -0.00 -0.00 -0.02 -0.02 -0.00 0.00 0.00 0.00 0.01 0.01 0.01 0.00 0.00 0.00 0.00 0.00 0.00 0.00 0.00 0.00 0.00 0.00 0.00 0.00
-0.15 -0.22 -0.30 -0.47 -0.48 -0.48 -0.36 -0.28 -0.29 -0.29 -0.34 -0.30 -0.28 -0.28 -0.17 -0.11 -0.11 0.00 0.00 0.00 0.00 0.00 -0.03 -0.16 -0.20 -0.20 -0.03 0.00 0.07 0.07 0.08 0.12 0.12 0.12 0.10 0.15 0.15 0.17 0.16 0.15 0.15 0.16 0.15 0.14 0.16 0.16 0.21 0.11 0.00 0.00 0.00 0.01 0.01 0.01 0.01 0.00 0.00 0.00 0.00 0.00 0.00 0.00 0.00 0.00 0.00 0.00 0.00 0.00 -0.00 -0.00 0.00 0.00 0.00 0.00 0.00 0.00 0.00 0.00 0.00 -0.01 -0.01 -0.02 -0.02 -0.02 0.00 0.00 0.00 0.01 0.01 0.01 0.00 0.00 0.00 0.00 0.00 0.00 0.00 0.00 0.00 0.00 0.00 0.00 0.00
-0.14 -0.22 -0.29 -0.48 -0.50 -0.50 -0.40 -0.32 -0.32 -0.32 -0.31 -0.39 -0.29 -0.29 -0.24 -0.13 -0.13 -0.06 0.00 0.00 0.00 0.00 -0.02 -0.15 -0.18 -0.18 -0.01 -0.01 0.05 0.05 0.06 0.08 0.10 0.10 0.08 0.12 0.12 0.15 0.16 0.17 0.17 0.18 0.19 0.13 0.13 0.13 0.23 0.16 0.05 0.05 0.14 0.01 0.01 0.01 0.01 0.00 0.00 0.00 0.00 0.00 0.00 -0.00 -0.00 0.00 0.00 0.00 0.00 0.00 0.00 0.00 0.00 0.00 0.00 0.00 0.00 0.00 0.00 0.00 0.00 -0.01 -0.01 -0.02 -0.02 -0.01 0.00 0.00 0.00 0.00 0.00 0.00 0.01 0.01 0.00 0.00 0.00 0.00 0.00 0.00 0.00 0.00 0.00 0.00 0.00
-0.16 -0.22 -0.29 -0.43 -0.50 -0.50 -0.52 -0.37 -0.31 -0.31 -0.30 -0.36 -0.33 -0.33 -0.28 -0.15 -0.15 -0.09 0.00 0.00 0.00 0.00 0.00 -0.14 -0.14 -0.14 -0.04 -0.01 0.05 0.05 0.06 0.07 0.07 0.07 0.08 0.14 0.14 0.17 0.15 0.16 0.16 0.21 0.21 0.14 0.13 0.13 0.20 0.22 0.04 0.04 0.11 0.19 0.01 0.01 0.00 0.00 0.00 0.00 0.00 -0.00 -0.00 -0.01 -0.01 -0.00 0.00 0.00 0.00 0.00 0.00 0.00 0.00 0.00 0.00 0.00 0.00 0.00 0.00 0.00 0.00 -0.01 -0.01 -0.03 -0.03 -0.00 0.00 0.00 0.00 0.00 0.00 0.00 0.00 0.01 0.00 0.00 0.00 0.00 0.00 0.00 0.00 0.00 0.00 0.00 0.00
-0.13 -0.20 -0.27 -0.31 -0.51 -0.51 -0.52 -0.43 -0.35 -0.35 -0.29 -0.34 -0.36 -0.36 -0.30 -0.17 -0.17 -0.10 -0.02 0.00 0.00 0.00 -0.00 -0.11 -0.12 -0.12 -0.08 -0.01 0.03 0.03 0.06 0.06 0.08 0.08 0.09 0.15 0.15 0.24 0.26 0.18 0.18 0.21 0.21 0.19 0.12 0.12 0.12 0.16 0.09 0.09 0.08 0.13 0.03 0.03 0.00 0.00 0.00 0.00 0.00 -0.01 -0.01 -0.02 -0.02 -0.00 0.00 0.00 0.00 0.00 0.00 0.00 0.00 0.00 0.00 0.00 0.00 0.00 0.00 0.00 -0.00 -0.01 -0.01 -0.04 -0.02 -0.01 0.00 0.00 0.00 0.01 0.01 0.01 -0.00 0.00 0.01 0.01 0.00 0.00 0.00 0.00 0.00 0.00 0.00 0.00 -0.00
-0.12 -0.16 -0.24 -0.31 -0.49 -0.49 -0.54 -0.48 -0.39 -0.39 -0.30 -0.29 -0.34 -0.34 -0.36 -0.19 -0.19 -0.15 -0.03 0.00 0.00 0.00 -0.00 -0.06 -0.10 -0.10 -0.13 -0.03 0.02 0.02 0.06 0.07 0.08 0.08 0.11 0.11 0.11 0.23 0.31 0.22 0.22 0.16 0.22 0.20 0.12 0.12 0.11 0.15 0.11 0.11 0.04 0.14 0.06 0.06 0.01 0.00 0.00 0.00 0.00 -0.02 -0.02 -0.03 -0.03 -0.00 0.00 0.00 0.00 0.00 0.00 0.00 0.00 0.00 0.00 0.00 0.00 0.00 0.00 0.00 -0.01 -0.01 -0.01 -0.03 -0.02 -0.00 0.00 0.00 0.00 0.01 -0.00 -0.00 -0.03 -0.00 0.01 0.01 0.00 0.00 0.00 0.00 0.00 0.00 0.00 0.00 -0.00
-0.12 -0.18 -0.28 -0.34 -0.46 -0.46 -0.55 -0.53 -0.46 -0.46 -0.37 -0.33 -0.34 -0.34 -0.34 -0.22 -0.22 -0.17 -0.09 -0.01 -0.01 0.00 -0.00 -0.06 -0.07 -0.07 -0.10 -0.10 -0.01 -0.01 0.07 0.07 0.08 0.08 0.11 0.08 0.08 0.17 0.26 0.28 0.28 0.23 0.19 0.20 0.11 0.11 0.11 0.08 0.11 0.11 0.07 0.09 0.11 0.11 0.01 0.00 0.00 0.00 0.00 -0.00 -0.00 -0.03 -0.04 -0.00 0.00 0.00 0.00 0.00 0.00 0.00 0.00 0.00 0.00 0.00 0.00 0.00 0.00 0.00 -0.00 -0.02 -0.02 -0.04 -0.03 -0.00 0.00 0.00 0.00 0.01 -0.01 -0.01 -0.07 -0.03 0.00 0.00 0.00 0.00 0.00 0.00 0.00 0.00 0.00 0.00 0.00
-0.13 -0.17 -0.25 -0.30 -0.47 -0.47 -0.52 -0.57 -0.50 -0.50 -0.38 -0.36 -0.36 -0.36 -0.36 -0.33 -0.33 -0.20 -0.11 -0.02 -0.02 -0.00 -0.00 -0.07 -0.01 -0.01 -0.04 -0.13 -0.05 -0.05 0.04 0.07 0.05 0.05 0.09 0.09 0.09 0.11 0.19 0.31 0.31 0.29 0.32 0.24 0.15 0.15 0.12 0.07 0.03 0.03 0.07 0.06 0.09 0.09 0.04 0.00 0.00 0.00 0.00 -0.00 -0.00 -0.03 -0.04 -0.01 0.00 0.00 0.00 0.00 0.00 0.00 0.00 0.00 0.00 0.00 0.00 0.00 0.00 0.00 -0.01 -0.01 -0.01 -0.05 -0.02 -0.00 0.00 0.00 0.00 -0.01 -0.04 -0.04 -0.07 -0.01 0.01 0.01 0.00 0.00 0.00 0.00 0.00 0.00 0.00 0.00 0.00
-0.12 -0.14 -0.19 -0.19 -0.45 -0.45 -0.52 -0.61 -0.52 -0.52 -0.40 -0.39 -0.34 -0.34 -0.38 -0.37 -0.37 -0.27 -0.15 -0.03 -0.03 -0.00 -0.00 -0.07 0.01 0.01 0.00 -0.04 -0.06 -0.06 0.01 0.06 0.05 0.05 0.08 0.12 0.12 0.07 0.13 0.19 0.19 0.30 0.33 0.28 0.17 0.17 0.12 0.09 0.04 0.04 0.04 0.04 0.08 0.08 0.03 0.03 0.03 0.00 0.00 -0.01 -0.01 -0.02 -0.03 -0.00 0.00 0.00 0.00 0.00 0.00 0.00 0.00 0.00 0.00 0.00 0.00 0.00 0.00 0.00 -0.01 -0.02 -0.02 -0.04 -0.02 -0.01 0.00 0.00 0.00 -0.00 -0.06 -0.06 -0.07 0.01 0.01 0.01 0.00 0.00 0.00 0.00 0.00 0.00 0.00 0.00 0.00
-0.14 -0.15 -0.19 -0.19 -0.40 -0.40 -0.53 -0.59 -0.59 -0.59 -0.48 -0.41 -0.35 -0.35 -0.41 -0.40 -0.40 -0.34 -0.20 -0.04 -0.04 -0.00 -0.00 -0.08 -0.02 -0.02 0.01 -0.01 -0.09 -0.09 -0.04 0.05 0.05 0.05 0.05 0.10 0.10 0.14 0.07 0.11 0.11 0.31 0.33 0.35 0.19 0.19 0.17 0.10 0.03 0.03 0.04 0.05 0.04 0.04 0.04 0.06 0.06 0.00 0.00 -0.01 -0.01 -0.02 -0.02 0.00 0.00 0.00 0.00 0.00 0.00 0.00 0.00 0.00 0.00 0.00 0.00 0.00 0.00 0.00 -0.01 -0.03 -0.03 -0.05 -0.01 -0.00 0.00 0.00 -0.00 -0.02 -0.07 -0.07 -0.06 -0.02 0.01 0.01 0.00 0.00 0.00 0.00 0.00 0.00 0.00 0.00 0.00
-0.13 -0.17 -0.18 -0.20 -0.35 -0.35 -0.55 -0.61 -0.60 -0.60 -0.53 -0.40 -0.36 -0.36 -0.36 -0.38 -0.38 -0.36 -0.27 -0.14 -0.14 -0.01 -0.00 -0.08 -0.06 -0.06 -0.02 -0.03 -0.14 -0.14 -0.06 0.02 0.05 0.05 0.04 0.09 0.09 0.13 0.08 0.03 0.03 0.32 0.34 0.35 0.29 0.29 0.20 0.12 0.05 0.05 0.00 0.05 0.07 0.07 0.07 0.05 0.05 0.00 0.00 -0.00 -0.00 -0.03 -0.04 0.01 0.00 0.00 0.00 0.00 0.00 0.00 0.00 0.00 0.00 0.00 0.00 0.00 0.00 -0.00 -0.01 -0.04 -0.04 -0.06 -0.04 -0.00 -0.00 -0.00 -0.01 -0.04 -0.08 -0.08 -0.05 0.00 0.03 0.03 0.00 0.00 0.00 0.00 0.00 0.00 0.00 0.00 0.00
-0.12 -0.15 -0.18 -0.17 -0.22 -0.22 -0.51 -0.65 -0.66 -0.66 -0.58 -0.44 -0.40 -0.40 -0.35 -0.32 -0.32 -0.32 -0.28 -0.19 -0.19 -0.03 0.00 -0.07 -0.09 -0.09 -0.10 -0.05 -0.22 -0.22 -0.07 0.01 0.04 0.04 0.04 0.07 0.07 0.12 0.15 0.10 0.10 0.13 0.33 0.36 0.31 0.31 0.24 0.20 0.07 0.07 0.02 0.06 0.08 0.08 0.06 0.08 0.08 0.04 0.00 -0.00 -0.00 -0.03 -0.06 -0.02 0.04 0.04 0.00 0.00 0.00 0.00 0.00 0.00 0.00 0.00 0.00 0.00 0.00 0.00 -0.01 -0.01 -0.01 -0.05 -0.03 -0.01 -0.01 -0.01 -0.02 -0.07 -0.10 -0.10 -0.06 0.02 0.03 0.03 0.01 0.00 0.00 0.00 0.00 0.00 0.00 0.00 0.00
-0.11 -0.14 -0.15 -0.17 -0.17 -0.17 -0.42 -0.62 -0.71 -0.71 -0.66 -0.52 -0.43 -0.43 -0.41 -0.33 -0.33 -0.32 -0.29 -0.20 -0.20 -0.05 -0.01 -0.06 -0.11 -0.11 -0.11 -0.09 -0.25 -0.25 -0.08 0.00 0.02 0.02 0.04 0.04 0.04 0.11 0.12 0.14 0.14 0.26 0.27 0.36 0.37 0.37 0.35 0.25 0.06 0.06 0.02 0.01 0.08 0.08 0.07 0.09 0.09 0.03 0.00 -0.00 -0.00 -0.01 -0.04 -0.00 0.05 0.05 0.02 0.00 0.00 0.00 0.00 0.00 0.00 0.00 0.00 0.00 0.00 0.00 -0.00 -0.01 -0.01 -0.02 -0.03 -0.01 -0.00 -0.00 -0.03 -0.06 -0.10 -0.10 -0.06 0.00 0.03 0.03 0.01 0.00 0.00 0.00 0.00 0.00 0.00 0.00 0.00
-0.09 -0.12 -0.15 -0.16 -0.18 -0.18 -0.35 -0.58 -0.71 -0.71 -0.68 -0.55 -0.51 -0.51 -0.50 -0.35 -0.35 -0.32 -0.32 -0.24 -0.24 -0.08 -0.01 -0.02 -0.11 -0.11 -0.16 -0.19 -0.24 -0.24 -0.10 0.01 -0.00 -0.00 0.05 0.05 0.05 0.10 0.12 0.20 0.20 0.30 0.33 0.34 0.37 0.37 0.37 0.24 0.10 0.10 0.02 0.00 0.01 0.01 0.06 0.07 0.07 0.04 0.00 -0.01 -0.01 -0.03 -0.03 -0.01 0.06 0.06 0.03 0.00 0.00 0.00 0.00 0.00 0.00 0.00 0.00 0.00 0.00 0.00 0.00 -0.00 -0.00 -0.01 -0.02 -0.01 -0.02 -0.02 -0.04 -0.08 -0.11 -0.11 -0.05 0.01 0.04 0.04 0.01 0.00 0.00 0.00 0.00 0.00 0.00 0.00 0.00
-0.08 -0.10 -0.14 -0.14 -0.17 -0.17 -0.30 -0.52 -0.71 -0.71 -0.68 -0.60 -0.55 -0.55 -0.57 -0.41 -0.41 -0.34 -0.32 -0.25 -0.25 -0.21 -0.05 -0.01 -0.12 -0.12 -0.17 -0.24 -0.25 -0.25 -0.19 0.02 0.01 0.01 0.05 0.07 0.07 0.11 0.14 0.17 0.17 0.35 0.38 0.33 0.36 0.36 0.35 0.22 0.11 0.11 0.03 0.00 0.00 0.00 0.03 0.07 0.07 0.04 0.01 -0.00 -0.00 -0.00 -0.12 -0.02 0.06 0.06 0.04 0.01 0.00 0.00 0.00 0.00 0.00 0.00 0.00 0.00 0.00 0.00 0.00 0.00 0.00 -0.00 -0.01 -0.01 -0.03 -0.03 -0.05 -0.10 -0.11 -0.11 -0.09 0.01 0.04 0.04 0.03 0.00 0.00 0.00 0.00 0.00 0.00 0.00 0.00
-0.04 -0.09 -0.12 -0.16 -0.17 -0.17 -0.26 -0.44 -0.60 -0.60 -0.66 -0.64 -0.60 -0.60 -0.58 -0.48 -0.48 -0.37 -0.33 -0.26 -0.26 -0.21 -0.05 -0.06 -0.13 -0.13 -0.22 -0.27 -0.25 -0.25 -0.22 -0.04 -0.01 -0.01 0.07 0.09 0.09 0.09 0.16 0.21 0.21 0.37 0.41 0.37 0.34 0.34 0.31 0.30 0.16 0.16 0.01 0.00 0.00 0.00 0.00 0.05 0.05 0.04 0.03 0.01 0.01 -0.04 -0.14 -0.03 0.05 0.05 0.07 0.03 0.00 0.00 0.00 -0.00 0.00 0.00 0.00 0.00 0.00 0.00 0.00 0.00 0.00 0.00 -0.00 -0.00 -0.05 -0.05 -0.06 -0.05 -0.10 -0.10 -0.08 -0.02 0.04 0.04 0.03 0.01 0.01 0.00 0.00 0.00 0.00 0.00 0.00
-0.03 -0.09 -0.13 -0.16 -0.17 -0.17 -0.25 -0.40 -0.54 -0.54 -0.67 -0.63 -0.60 -0.60 -0.58 -0.57 -0.57 -0.43 -0.34 -0.27 -0.27 -0.15 -0.05 -0.07 -0.06 -0.06 -0.24 -0.29 -0.25 -0.25 -0.25 -0.15 -0.04 -0.04 0.00 0.07 0.07 0.08 0.19 0.25 0.25 0.35 0.39 0.36 0.29 0.29 0.32 0.34 0.28 0.28 0.12 0.00 0.00 0.00 0.00 0.04 0.04 0.05 0.05 0.04 0.04 0.05 -0.09 -0.08 0.03 0.03 0.06 0.06 0.00 0.00 0.00 -0.00 0.00 0.00 0.00 0.00 0.00 0.00 0.00 0.00 0.00 -0.00 0.00 -0.00 -0.03 -0.03 -0.06 -0.04 -0.07 -0.07 -0.06 -0.02 -0.00 -0.00 0.03 0.01 0.01 0.00 0.00 0.00 0.00 0.00 0.00
-0.03 -0.05 -0.12 -0.17 -0.14 -0.14 -0.15 -0.39 -0.53 -0.53 -0.60 -0.62 -0.64 -0.64 -0.65 -0.63 -0.63 -0.56 -0.40 -0.26 -0.26 -0.21 -0.08 -0.10 -0.10 -0.10 -0.24 -0.32 -0.34 -0.34 -0.19 -0.14 -0.04 -0.04 -0.00 0.03 0.03 0.04 0.12 0.28 0.28 0.35 0.37 0.34 0.29 0.29 0.30 0.32 0.32 0.32 0.22 0.00 0.00 0.00 0.00 0.00 0.00 0.02 0.05 0.03 0.03 0.02 -0.07 -0.07 -0.03 -0.03 0.06 0.08 0.03 0.03 0.01 -0.00 0.00 0.00 0.00 0.00 0.00 0.00 0.00 0.00 0.00 -0.00 -0.01 -0.01 -0.05 -0.05 -0.09 -0.03 -0.04 -0.04 -0.05 -0.01 -0.00 -0.00 0.03 0.01 0.01 0.00 0.00 0.00 0.00 0.00 0.00
-0.05 -0.03 -0.06 -0.12 -0.22 -0.22 -0.21 -0.38 -0.58 -0.58 -0.55 -0.52 -0.65 -0.65 -0.72 -0.71 -0.71 -0.72 -0.59 -0.48 -0.48 -0.19 -0.18 -0.23 -0.23 -0.23 -0.31 -0.38 -0.45 -0.45 -0.26 -0.15 -0.14 -0.14 -0.07 0.00 0.00 0.03 0.09 0.45 0.45 0.53 0.42 0.28 0.29 0.29 0.30 0.29 0.33 0.33 0.31 0.22 0.16 0.16 0.00 0.00 0.00 0.01 0.03 0.03 0.03 -0.01 -0.10 -0.04 -0.01 -0.01 0.01 0.10 0.08 0.08 0.06 0.00 0.00 0.00 0.00 0.00 0.00 0.00 0.00 0.00 0.00 -0.00 -0.01 0.01 -0.02 -0.02 -0.08 -0.03 -0.01 -0.01 -0.01 -0.01 -0.00 -0.00 0.01 0.02 0.02 0.00 0.00 0.00 0.00 0.00 0.00
-0.06 -0.02 -0.05 -0.11 -0.23 -0.23 -0.26 -0.46 -0.70 -0.70 -0.73 -0.59 -0.62 -0.62 -0.68 -0.66 -0.66 -0.74 -0.68 -0.59 -0.59 -0.19 -0.28 -0.28 -0.29 -0.29 -0.30 -0.36 -0.39 -0.39 -0.29 -0.14 -0.16 -0.16 -0.11 -0.04 -0.04 0.05 0.11 0.27 0.27 0.54 0.51 0.32 0.32 0.32 0.35 0.26 0.28 0.28 0.34 0.27 0.23 0.23 0.00 0.00 0.00 0.00 0.03 0.01 0.01 0.01 -0.10 -0.08 0.03 0.03 0.01 0.04 0.09 0.09 0.06 0.00 0.00 0.00 0.00 0.00 0.00 0.00 0.00 0.00 0.00 -0.00 -0.01 0.00 -0.03 -0.03 -0.09 -0.02 -0.01 -0.01 -0.00 -0.00 -0.00 -0.00 0.00 0.02 0.02 0.01 0.00 0.00 0.00 0.00 0.00
-0.06 -0.02 -0.03 -0.08 -0.20 -0.20 -0.28 -0.54 -0.70 -0.70 -0.76 -0.66 -0.71 -0.71 -0.62 -0.62 -0.62 -0.68 -0.75 -0.68 -0.68 -0.44 -0.30 -0.27 -0.28 -0.28 -0.34 -0.33 -0.44 -0.44 -0.56 -0.17 -0.19 -0.19 -0.15 -0.08 -0.08 -0.01 0.10 0.22 0.22 0.61 0.67 0.55 0.33 0.33 0.41 0.37 0.31 0.31 0.33 0.31 0.38 0.38 0.15 0.00 0.00 0.02 0.01 0.00 0.00 0.00 -0.05 -0.04 0.02 0.02 0.01 0.03 0.07 0.07 0.04 0.00 0.00 0.00 0.00 0.00 0.00 0.00 0.00 0.01 0.01 -0.00 -0.02 -0.00 -0.04 -0.04 -0.10 -0.02 -0.01 -0.01 -0.00 -0.00 -0.00 -0.00 -0.00 0.01 0.01 0.01 0.00 0.00 0.00 0.00 0.00
-0.07 -0.06 -0.05 -0.07 -0.18 -0.18 -0.23 -0.51 -0.64 -0.64 -0.64 -0.62 -0.68 -0.68 -0.54 -0.53 -0.53 -0.57 -0.74 -0.70 -0.70 -0.43 -0.30 -0.19 -0.25 -0.25 -0.34 -0.31 -0.31 -0.31 -0.50 -0.16 -0.15 -0.15 -0.18 -0.13 -0.13 -0.03 0.07 0.14 0.14 0.39 0.82 0.77 0.44 0.44 0.45 0.43 0.40 0.40 0.38 0.35 0.39 0.39 0.29 0.04 0.04 0.03 0.02 0.00 0.00 0.00 0.00 0.03 0.06 0.06 0.01 0.03 0.06 0.06 0.04 0.00 0.00 0.00 0.00 0.00 0.00 0.00 0.00 0.01 0.01 0.00 -0.01 -0.00 -0.05 -0.05 -0.09 -0.04 -0.00 -0.00 -0.00 0.00 0.00 0.00 -0.00 0.00 0.00 0.01 0.00 0.00 0.00 0.00 0.00
-0.09 -0.08 -0.09 -0.12 -0.20 -0.20 -0.30 -0.39 -0.59 -0.59 -0.55 -0.58 -0.56 -0.56 -0.55 -0.51 -0.51 -0.57 -0.68 -0.66 -0.66 -0.55 -0.29 -0.17 -0.26 -0.26 -0.39 -0.32 -0.28 -0.28 -0.29 -0.16 -0.10 -0.10 -0.12 -0.12 -0.12 -0.04 0.01 0.12 0.12 0.28 0.79 0.92 0.84 0.84 0.68 0.52 0.43 0.43 0.39 0.38 0.38 0.38 0.34 0.18 0.18 0.04 0.04 0.00 0.00 0.00 0.00 0.03 0.09 0.09 0.07 0.02 0.06 0.06 0.04 0.00 0.00 0.00 0.00 0.00 0.00 0.00 0.00 0.01 0.01 0.00 -0.01 0.00 -0.00 -0.00 -0.07 -0.03 -0.01 -0.01 0.00 0.00 0.00 0.00 0.00 0.00 0.00 0.01 0.00 0.00 0.00 0.00 0.00
-0.09 -0.10 -0.10 -0.13 -0.25 -0.25 -0.31 -0.40 -0.58 -0.58 -0.59 -0.59 -0.58 -0.58 -0.51 -0.51 -0.51 -0.54 -0.65 -0.67 -0.67 -0.55 -0.27 -0.15 -0.09 -0.09 -0.38 -0.32 -0.24 -0.24 -0.28 -0.24 -0.09 -0.09 -0.08 -0.14 -0.14 -0.04 0.01 0.09 0.09 0.21 0.45 0.85 0.94 0.94 0.83 0.70 0.56 0.56 0.46 0.39 0.42 0.42 0.34 0.21 0.21 0.06 0.03 0.03 0.03 0.00 0.00 0.02 0.10 0.10 0.07 0.03 0.04 0.04 0.05 0.00 0.00 0.00 0.00 0.00 0.00 0.00 0.00 0.00 0.00 0.00 -0.00 0.00 0.00 0.00 -0.01 -0.03 -0.01 -0.01 -0.00 0.00 0.00 0.00 0.00 0.00 0.00 0.01 0.00 0.00 0.00 0.00 0.00
-0.10 -0.11 -0.12 -0.13 -0.22 -0.22 -0.30 -0.40 -0.56 -0.56 -0.59 -0.64 -0.63 -0.63 -0.52 -0.53 -0.53 -0.55 -0.62 -0.64 -0.64 -0.68 -0.29 -0.18 -0.13 -0.13 -0.27 -0.28 -0.24 -0.24 -0.26 -0.22 -0.10 -0.10 -0.03 -0.10 -0.10 -0.06 0.01 0.09 0.09 0.17 0.36 0.78 0.91 0.91 0.92 0.82 0.66 0.66 0.61 0.69 0.58 0.58 0.32 0.24 0.24 0.11 0.04 0.03 0.03 0.01 0.00 0.02 0.12 0.12 0.08 0.05 0.03 0.03 0.07 0.06 0.00 0.00 0.00 0.00 0.00 0.00 0.00 0.00 0.00 0.00 0.00 0.01 0.00 0.00 -0.00 -0.01 -0.01 -0.01 0.00 0.00 0.00 0.00 0.00 0.00 0.00 0.01 0.00 0.00 0.00 0.00 0.00
-0.10 -0.10 -0.12 -0.15 -0.16 -0.16 -0.27 -0.37 -0.49 -0.49 -0.53 -0.63 -0.68 -0.68 -0.62 -0.53 -0.53 -0.61 -0.62 -0.71 -0.71 -0.64 -0.62 -0.25 -0.17 -0.17 -0.19 -0.25 -0.24 -0.24 -0.21 -0.20 -0.10 -0.10 -0.02 -0.05 -0.05 -0.04 0.02 0.05 0.05 0.15 0.30 0.50 0.81 0.81 0.91 0.90 0.78 0.78 0.67 0.72 0.77 0.77 0.66 0.33 0.33 0.20 0.20 0.04 0.04 0.02 0.00 0.01 0.09 0.09 0.10 0.06 0.06 0.06 0.08 0.06 0.02 0.02 0.00 0.00 0.00 0.00 0.00 0.00 0.00 0.00 0.01 0.02 0.03 0.03 0.00 -0.00 -0.01 -0.01 0.00 0.00 0.00 0.00 0.00 0.00 0.00 0.00 0.00 0.00 0.00 0.00 0.00
-0.08 -0.09 -0.12 -0.18 -0.19 -0.19 -0.25 -0.34 -0.41 -0.41 -0.48 -0.61 -0.72 -0.72 -0.70 -0.55 -0.55 -0.62 -0.59 -0.73 -0.73 -0.72 -0.68 -0.28 -0.19 -0.19 -0.14 -0.16 -0.14 -0.14 -0.16 -0.18 -0.13 -0.13 -0.03 -0.04 -0.04 -0.04 0.03 0.06 0.06 0.12 0.24 0.46 0.80 0.80 0.91 0.96 0.90 0.90 0.73 0.79 0.82 0.82 0.86 0.46 0.46 0.33 0.34 0.05 0.05 0.02 0.00 -0.00 0.08 0.08 0.17 0.07 0.10 0.10 0.04 0.06 0.03 0.03 0.00 0.00 0.00 0.00 0.00 0.00 0.00 0.00 0.00 0.03 0.07 0.07 0.02 0.00 -0.00 -0.00 -0.00 0.00 0.00 0.00 0.00 0.00 0.00 0.00 0.00 0.00 0.00 0.00 0.00
-0.05 -0.08 -0.23 -0.26 -0.24 -0.24 -0.24 -0.29 -0.36 -0.36 -0.45 -0.60 -0.81 -0.81 -0.76 -0.64 -0.64 -0.61 -0.58 -0.64 -0.64 -0.71 -0.65 -0.38 -0.22 -0.22 -0.14 -0.09 -0.06 -0.06 -0.16 -0.12 -0.12 -0.12 -0.04 -0.01 -0.01 0.03 0.06 0.07 0.07 0.09 0.20 0.40 0.79 0.79 0.86 0.91 1.02 1.02 0.95 0.95 0.79 0.79 0.90 0.94 0.94 0.48 0.48 0.29 0.29 0.04 0.01 -0.00 0.08 0.08 0.17 0.17 0.12 0.12 0.08 0.11 0.03 0.03 0.02 0.00 0.00 0.00 0.00 0.00 0.00 0.00 0.01 0.02 0.10 0.10 0.04 0.00 0.00 0.00 -0.00 0.00 0.00 0.00 0.00 0.00 0.00 0.00 0.00 0.00 0.00 0.00 0.00
-0.05 -0.08 -0.18 -0.39 -0.35 -0.35 -0.24 -0.25 -0.30 -0.30 -0.51 -0.59 -0.77 -0.77 -0.75 -0.69 -0.69 -0.53 -0.45 -0.57 -0.57 -0.75 -0.64 -0.58 -0.28 -0.28 -0.13 -0.08 -0.06 -0.06 -0.08 -0.09 -0.11 -0.11 -0.13 -0.00 -0.00 0.03 0.08 0.09 0.09 0.10 0.20 0.37 0.56 0.56 0.85 0.87 0.93 0.93 1.05 0.95 0.95 0.95 0.84 0.96 0.96 0.96 0.75 0.45 0.45 0.08 0.01 -0.00 0.03 0.03 0.14 0.19 0.12 0.12 0.09 0.13 0.03 0.03 0.02 0.00 0.00 0.00 0.00 0.00 0.00 0.00 0.01 0.03 0.12 0.12 0.05 0.01 0.01 0.01 0.00 0.00 0.00 0.00 0.00 0.00 0.00 0.00 0.00 0.00 0.00 0.00 0.00
-0.05 -0.11 -0.22 -0.48 -0.50 -0.50 -0.34 -0.28 -0.29 -0.29 -0.52 -0.65 -0.63 -0.63 -0.68 -0.63 -0.63 -0.48 -0.46 -0.52 -0.52 -0.79 -0.72 -0.62 -0.33 -0.33 -0.15 -0.05 -0.05 -0.05 -0.05 -0.09 -0.07 -0.07 -0.10 0.03 0.03 0.05 0.05 0.11 0.11 0.13 0.15 0.35 0.55 0.55 0.71 0.84 0.91 0.91 0.99 0.96 0.89 0.89 0.87 0.82 0.82 0.79 0.88 0.70 0.70 0.39 0.03 0.00 -0.01 -0.01 0.14 0.17 0.18 0.18 0.06 0.15 0.08 0.08 0.02 0.02 0.02 0.01 0.00 0.00 0.00 0.00 0.00 0.03 0.08 0.08 0.06 0.02 0.01 0.01 0.00 0.00 0.02 0.02 0.04 0.00 0.00 0.00 0.00 0.00 0.00 0.00 0.00
-0.06 -0.15 -0.26 -0.50 -0.56 -0.56 -0.58 -0.45 -0.38 -0.38 -0.51 -0.70 -0.63 -0.63 -0.53 -0.57 -0.57 -0.44 -0.50 -0.56 -0.56 -0.69 -0.65 -0.60 -0.31 -0.31 -0.13 -0.02 -0.04 -0.04 -0.03 -0.07 -0.08 -0.08 -0.07 0.00 0.00 0.10 0.06 0.11 0.11 0.15 0.17 0.35 0.52 0.52 0.72 0.78 0.87 0.87 0.94 0.99 0.95 0.95 0.84 0.78 0.78 0.68 0.77 0.87 0.87 0.65 0.31 0.02 -0.02 -0.02 -0.00 0.18 0.20 0.20 0.13 0.14 0.12 0.12 0.05 0.07 0.07 0.04 0.04 0.00 0.00 0.00 0.00 0.02 0.11 0.11 0.15 0.04 0.01 0.01 0.00 0.00 0.03 0.03 0.06 0.01 0.01 0.00 0.00 0.01 0.01 0.01 0.00
-0.06 -0.15 -0.25 -0.48 -0.55 -0.55 -0.61 -0.62 -0.56 -0.56 -0.54 -0.63 -0.65 -0.65 -0.45 -0.34 -0.34 -0.34 -0.54 -0.70 -0.70 -0.67 -0.52 -0.50 -0.40 -0.40 -0.10 0.02 -0.04 -0.04 -0.05 -0.06 -0.06 -0.06 -0.05 0.01 0.01 0.12 0.12 0.12 0.12 0.15 0.19 0.31 0.45 0.45 0.68 0.72 0.78 0.78 0.88 0.93 0.94 0.94 0.93 0.76 0.76 0.66 0.62 0.87 0.87 0.85 0.54 0.05 -0.01 -0.01 -0.01 0.15 0.16 0.16 0.23 0.14 0.18 0.18 0.15 0.03 0.03 0.06 0.05 0.01 0.01 0.00 0.00 0.00 0.10 0.10 0.16 0.10 0.01 0.01 0.00 0.00 0.01 0.01 0.06 0.01 0.01 0.01 0.00 0.03 0.03 0.03 0.00
-0.06 -0.16 -0.25 -0.42 -0.49 -0.49 -0.59 -0.84 -0.75 -0.75 -0.71 -0.66 -0.64 -0.64 -0.35 -0.30 -0.30 -0.26 -0.46 -0.68 -0.68 -0.86 -0.53 -0.46 -0.35 -0.35 -0.04 0.00 -0.03 -0.03 -0.04 -0.04 -0.05 -0.05 -0.02 0.04 0.04 0.12 0.14 0.17 0.17 0.23 0.26 0.38 0.44 0.44 0.64 0.71 0.67 0.67 0.65 0.76 0.87 0.87 0.90 0.83 0.83 0.62 0.56 0.58 0.58 0.86 0.71 0.49 0.01 0.01 0.00 0.02 0.10 0.10 0.22 0.16 0.20 0.20 0.21 0.06 0.06 0.06 0.06 0.06 0.06 0.01 -0.00 0.00 0.00 0.00 0.15 0.11 0.06 0.06 0.01 0.00 0.01 0.01 0.03 0.01 0.01 0.01 0.00 0.04 0.04 0.05 0.02
-0.04 -0.14 -0.22 -0.39 -0.43 -0.43 -0.52 -0.90 -1.01 -1.01 -0.94 -0.75 -0.65 -0.65 -0.49 -0.29 -0.29 -0.21 -0.24 -0.67 -0.67 -1.09 -0.78 -0.50 -0.33 -0.33 -0.07 -0.03 -0.03 -0.03 -0.10 -0.06 -0.03 -0.03 0.00 0.05 0.05 0.09 0.15 0.18 0.18 0.23 0.37 0.48 0.45 0.45 0.55 0.72 0.70 0.70 0.63 0.66 0.79 0.79 0.86 0.83 0.83 0.81 0.50 0.51 0.51 0.57 0.62 0.53 0.23 0.23 0.03 0.05 0.04 0.04 0.15 0.16 0.20 0.20 0.26 0.14 0.14 0.06 0.07 0.10 0.10 0.05 0.05 0.00 0.02 0.02 0.06 0.14 0.08 0.08 0.04 0.00 0.00 0.00 0.02 0.05 0.05 0.01 0.01 0.02 0.02 0.05 0.02
-0.01 -0.12 -0.17 -0.21 -0.39 -0.39 -0.45 -0.82 -1.14 -1.14 -1.13 -0.85 -0.73 -0.73 -0.70 -0.02 -0.02 0.06 -0.03 -0.57 -0.57 -1.09 -1.48 -0.71 -0.34 -0.34 -0.13 0.02 -0.04 -0.04 -0.11 -0.10 -0.07 -0.07 -0.00 0.03 0.03 0.08 0.13 0.15 0.15 0.19 0.39 0.48 0.50 0.50 0.54 0.66 0.73 0.73 0.65 0.60 0.70 0.70 0.86 0.84 0.84 0.82 0.55 0.45 0.45 0.47 0.50 0.48 0.30 0.30 0.07 0.07 0.05 0.05 0.04 0.16 0.18 0.18 0.17 0.25 0.25 0.09 0.08 0.08 0.08 0.09 0.06 0.00 0.02 0.02 0.03 0.10 0.10 0.10 0.05 0.02 0.00 0.00 0.02 0.05 0.05 0.02 0.01 0.03 0.03 0.04 0.02
0.00 -0.09 -0.15 -0.14 -0.33 -0.33 -0.44 -0.54 -1.05 -1.05 -1.35 -1.27 -0.99 -0.99 -1.11 -0.54 -0.54 -0.37 -0.31 -0.76 -0.76 -1.11 -1.46 -1.07 -0.50 -0.50 -0.18 0.03 0.01 0.01 -0.00 -0.13 -0.09 -0.09 -0.04 0.02 0.02 0.08 0.14 0.15 0.15 0.18 0.26 0.44 0.53 0.53 0.53 0.63 0.72 0.72 0.81 0.67 0.66 0.66 0.76 0.87 0.87 0.89 0.83 0.50 0.50 0.43 0.38 0.39 0.29 0.29 0.12 0.10 0.07 0.07 0.06 0.08 0.17 0.17 0.19 0.21 0.21 0.15 0.11 0.07 0.07 0.11 0.11 0.03 0.02 0.02 0.01 0.09 0.18 0.18 0.07 0.04 0.02 0.02 0.01 0.04 0.04 0.02 0.01 0.02 0.02 0.03 0.03
0.00 -0.06 -0.11 -0.13 -0.23 -0.23 -0.40 -0.51 -1.08 -1.08 -1.42 -1.73 -1.67 -1.67 -1.41 -0.87 -0.87 -0.61 -0.61 -0.74 -0.74 -0.95 -1.35 -1.37 -1.04 -1.04 -0.34 0.00 -0.02 -0.02 -0.02 -0.04 -0.08 -0.08 -0.01 0.06 0.06 0.08 0.14 0.20 0.20 0.21 0.27 0.44 0.51 0.51 0.57 0.65 0.77 0.77 0.86 0.72 0.68 0.68 0.73 0.80 0.80 0.94 0.92 0.76 0.76 0.46 0.38 0.34 0.27 0.27 0.16 0.12 0.09 0.09 0.07 0.03 0.13 0.13 0.19 0.16 0.16 0.26 0.19 0.08 0.08 0.07 0.10 0.05 0.03 0.03 0.01 0.07 0.16 0.16 0.15 0.06 0.03 0.03 0.01 0.04 0.04 0.02 0.01 0.01 0.01 0.01 0.02
-0.03 -0.04 -0.07 -0.10 -0.14 -0.14 -0.33 -0.51 -1.06 -1.06 -1.47 -1.74 -1.70 -1.70 -1.47 -1.11 -1.11 -0.66 -0.68 -0.69 -0.69 -0.89 -1.24 -1.52 -1.18 -1.18 -0.69 -0.12 -0.03 -0.03 -0.10 -0.06 -0.01 -0.01 0.01 0.03 0.03 0.08 0.13 0.19 0.19 0.29 0.33 0.34 0.48 0.48 0.56 0.61 0.85 0.85 1.04 0.94 0.74 0.74 0.71 0.80 0.80 0.96 0.96 0.83 0.83 0.49 0.37 0.31 0.29 0.29 0.16 0.12 0.12 0.12 0.06 0.07 0.09 0.09 0.20 0.17 0.17 0.20 0.26 0.13 0.13 0.05 0.05 0.07 0.08 0.08 0.07 0.03 0.14 0.14 0.16 0.14 0.06 0.06 0.02 0.02 0.02 0.03 0.01 0.02 0.02 0.02 -0.02
-0.04 -0.04 -0.07 -0.10 -0.12 -0.12 -0.25 -0.50 -0.93 -0.93 -1.28 -1.12 -1.26 -1.26 -1.14 -0.98 -0.98 -0.66 -0.70 -0.77 -0.77 -0.68 -1.01 -1.35 -1.25 -1.25 -0.92 -0.45 -0.05 -0.05 -0.10 -0.14 -0.06 -0.06 -0.03 0.01 0.01 0.04 0.08 0.16 0.16 0.32 0.34 0.36 0.42 0.42 0.51 0.61 0.92 0.92 1.14 1.15 0.99 0.99 0.81 0.82 0.82 0.83 1.00 0.90 0.90 0.65 0.38 0.31 0.26 0.26 0.22 0.15 0.09 0.09 0.07 0.05 0.10 0.10 0.14 0.19 0.19 0.18 0.20 0.20 0.20 0.06 0.06 0.03 0.06 0.06 0.05 0.06 0.10 0.10 0.17 0.17 0.17 0.17 0.03 0.02 0.02 0.03 0.02 0.02 0.02 0.03 -0.02
-0.01 -0.04 -0.05 -0.09 -0.11 -0.11 -0.19 -0.40 -0.75 -0.75 -0.93 -0.67 -0.76 -0.76 -0.79 -0.67 -0.67 -0.47 -0.48 -0.63 -0.63 -0.73 -0.85 -1.16 -1.26 -1.26 -1.00 -0.68 -0.13 -0.13 -0.11 -0.16 -0.13 -0.13 -0.07 0.01 0.01 0.01 0.04 0.13 0.13 0.21 0.30 0.35 0.40 0.40 0.43 0.54 0.61 0.61 1.11 1.25 1.16 1.16 0.94 0.96 0.96 0.84 0.93 0.98 0.98 0.73 0.57 0.34 0.27 0.27 0.19 0.13 0.09 0.09 0.05 0.05 0.09 0.09 0.15 0.17 0.17 0.12 0.14 0.17 0.17 0.12 0.07 0.02 0.07 0.07 0.07 0.05 0.02 0.02 0.15 0.20 0.19 0.19 0.12 0.02 0.02 0.03 0.02 0.03 0.03 0.04 -0.00
-0.02 -0.02 -0.04 -0.07 -0.09 -0.09 -0.14 -0.28 -0.45 -0.45 -0.45 -0.44 -0.37 -0.37 -0.51 -0.54 -0.54 -0.44 -0.33 -0.40 -0.40 -0.50 -0.74 -0.75 -0.93 -0.93 -1.02 -0.74 -0.46 -0.46 -0.15 -0.15 -0.14 -0.14 -0.09 -0.01 -0.01 0.01 0.01 0.10 0.10 0.20 0.30 0.33 0.37 0.37 0.38 0.45 0.51 0.51 0.71 1.20 1.32 1.32 1.18 1.12 1.12 0.96 0.90 0.99 0.99 0.86 0.72 0.49 0.31 0.31 0.23 0.16 0.05 0.05 0.03 0.03 0.07 0.07 0.13 0.13 0.13 0.11 0.11 0.11 0.11 0.12 0.08 0.07 0.06 0.06 0.08 0.04 0.03 0.03 0.04 0.08 0.22 0.22 0.15 0.08 0.08 0.03 0.02 0.02 0.02 0.04 0.02
-0.07 -0.03 -0.04 -0.04 -0.06 -0.06 -0.11 -0.14 -0.14 -0.14 -0.26 -0.27 -0.30 -0.30 -0.25 -0.30 -0.30 -0.40 -0.24 -0.27 -0.27 -0.28 -0.45 -0.59 -0.81 -0.81 -0.97 -0.92 -0.68 -0.68 -0.46 -0.30 -0.24 -0.24 -0.12 -0.03 -0.03 -0.00 -0.00 0.02 0.02 0.05 0.14 0.38 0.38 0.38 0.34 0.31 0.33 0.33 0.45 0.71 1.21 1.21 1.22 1.09 1.09 1.07 1.00 0.94 0.94 0.92 0.97 0.71 0.49 0.49 0.21 0.11 0.06 0.06 0.04 0.05 0.06 0.06 0.08 0.11 0.11 0.09 0.09 0.04 0.04 0.10 0.11 0.10 0.07 0.07 0.07 0.08 0.03 0.03 0.02 0.03 0.16 0.16 0.25 0.14 0.14 0.08 0.03 0.03 0.03 0.03 0.06
-0.08 -0.07 -0.06 -0.04 -0.06 -0.06 -0.11 -0.11 -0.09 -0.09 -0.21 -0.21 -0.22 -0.22 -0.25 -0.24 -0.24 -0.32 -0.32 -0.26 -0.26 -0.30 -0.33 -0.55 -0.72 -0.72 -0.84 -1.00 -0.84 -0.84 -0.61 -0.35 -0.23 -0.23 -0.16 -0.02 -0.02 -0.01 0.01 0.00 0.00 0.04 0.09 0.18 0.42 0.42 0.40 0.30 0.28 0.28 0.38 0.55 0.86 0.86 1.20 1.10 1.10 1.00 0.94 0.87 0.87 0.84 1.04 0.82 0.53 0.53 0.31 0.09 0.06 0.06 0.04 0.03 0.05 0.05 0.06 0.11 0.11 0.16 0.10 0.07 0.07 0.02 0.05 0.05 0.12 0.12 0.12 0.10 0.09 0.09 0.04 0.09 0.16 0.16 0.23 0.25 0.25 0.05 0.04 0.05 0.05 0.04 0.09
-0.12 -0.09 -0.08 -0.06 -0.05 -0.05 -0.07 -0.09 -0.11 -0.11 -0.14 -0.17 -0.16 -0.16 -0.22 -0.26 -0.26 -0.25 -0.32 -0.33 -0.33 -0.31 -0.34 -0.54 -0.75 -0.75 -0.85 -0.82 -0.79 -0.79 -0.68 -0.44 -0.14 -0.14 -0.10 -0.06 -0.06 0.00 -0.01 -0.01 -0.01 0.04 0.08 0.11 0.34 0.34 0.47 0.41 0.43 0.43 0.32 0.46 0.69 0.69 1.08 1.09 1.09 1.03 0.94 0.80 0.80 0.82 1.00 0.89 0.58 0.58 0.34 0.16 0.09 0.09 0.08 0.05 0.03 0.03 0.08 0.13 0.13 0.15 0.13 0.06 0.06 0.03 0.02 0.02 0.04 0.04 0.04 0.12 0.09 0.09 0.05 0.07 0.13 0.13 0.20 0.24 0.24 0.19 0.05 0.07 0.07 0.05 0.06
-0.15 -0.12 -0.14 -0.11 -0.05 -0.05 -0.03 -0.06 -0.09 -0.09 -0.12 -0.15 -0.18 -0.18 -0.21 -0.24 -0.24 -0.20 -0.30 -0.39 -0.39 -0.37 -0.41 -0.51 -0.76 -0.76 -0.90 -0.86 -0.62 -0.62 -0.58 -0.61 -0.25 -0.25 -0.08 -0.03 -0.03 0.01 -0.02 -0.01 -0.01 0.02 0.08 0.10 0.14 0.14 0.39 0.48 0.56 0.56 0.33 0.40 0.56 0.56 0.72 1.10 1.10 1.09 1.07 0.85 0.85 0.86 0.93 1.10 0.65 0.65 0.39 0.18 0.14 0.14 0.09 0.04 0.02 0.02 0.05 0.12 0.12 0.13 0.12 0.08 0.08 0.07 0.06 0.00 0.00 0.00 0.01 0.11 0.10 0.10 0.08 0.07 0.08 0.08 0.20 0.21 0.21 0.20 0.14 0.10 0.10 0.09 0.07
-0.18 -0.17 -0.18 -0.18 -0.11 -0.11 -0.07 -0.03 -0.07 -0.07 -0.12 -0.17 -0.15 -0.15 -0.16 -0.24 -0.24 -0.27 -0.28 -0.37 -0.37 -0.43 -0.46 -0.43 -0.72 -0.72 -0.94 -1.06 -0.71 -0.71 -0.70 -0.75 -0.65 -0.65 -0.15 -0.10 -0.10 -0.05 -0.03 -0.01 -0.01 -0.00 0.10 0.12 0.16 0.16 0.21 0.41 0.50 0.50 0.52 0.38 0.49 0.49 0.58 0.84 0.84 1.23 1.15 0.98 0.98 0.91 0.90 1.03 1.11 1.11 0.48 0.20 0.13 0.13 0.09 0.04 0.01 0.01 0.00 0.10 0.10 0.11 0.10 0.11 0.11 0.08 0.08 0.03 0.01 0.01 0.00 0.03 0.10 0.10 0.06 0.09 0.06 0.06 0.13 0.20 0.20 0.20 0.14 0.11 0.11 0.10 0.11
-0.23 -0.21 -0.19 -0.22 -0.20 -0.20 -0.17 -0.06 -0.07 -0.07 -0.10 -0.16 -0.10 -0.10 -0.04 -0.11 -0.11 -0.30 -0.34 -0.38 -0.38 -0.35 -0.37 -0.45 -0.69 -0.69 -0.95 -1.16 -1.07 -1.07 -0.76 -0.80 -0.73 -0.73 -0.25 -0.10 -0.10 -0.10 -0.04 -0.07 -0.07 -0.06 -0.01 0.16 0.21 0.21 0.27 0.47 0.46 0.46 0.51 0.50 0.44 0.44 0.52 0.69 0.69 1.17 1.22 1.12 1.12 1.04 0.89 0.94 1.08 1.08 1.01 0.30 0.13 0.13 0.10 0.03 0.01 0.01 0.00 0.01 0.01 0.11 0.13 0.10 0.10 0.11 0.09 0.07 0.01 0.01 0.01 0.01 0.05 0.05 0.06 0.09 0.06 0.06 0.13 0.18 0.18 0.20 0.15 0.11 0.11 0.09 0.16
-0.27 -0.24 -0.20 -0.18 -0.14 -0.14 -0.17 -0.12 -0.08 -0.08 -0.05 -0.05 -0.09 -0.09 -0.01 -0.01 -0.01 -0.27 -0.35 -0.40 -0.40 -0.42 -0.41 -0.47 -0.57 -0.57 -0.93 -1.13 -1.16 -1.16 -0.87 -0.84 -0.77 -0.77 -0.24 -0.22 -0.22 -0.20 -0.11 -0.09 -0.09 -0.07 -0.03 0.18 0.29 0.29 0.37 0.46 0.50 0.50 0.48 0.52 0.46 0.46 0.52 0.60 0.60 0.76 1.18 1.20 1.20 1.07 0.91 0.84 0.97 0.97 0.97 0.45 0.21 0.21 0.10 0.06 0.01 0.01 0.00 0.00 0.00 0.05 0.15 0.12 0.12 0.10 0.10 0.10 0.03 0.03 0.04 0.01 0.02 0.02 0.03 0.08 0.16 0.16 0.09 0.15 0.15 0.17 0.18 0.11 0.11 0.08 0.13
-0.28 -0.25 -0.23 -0.17 -0.12 -0.12 -0.13 -0.14 -0.05 -0.05 -0.02 -0.04 -0.03 -0.03 -0.06 -0.05 -0.05 -0.12 -0.25 -0.23 -0.23 -0.34 -0.47 -0.47 -0.47 -0.47 -0.88 -1.05 -1.14 -1.14 -0.99 -0.72 -0.64 -0.64 -0.64 -0.25 -0.25 -0.20 -0.15 -0.08 -0.08 -0.05 -0.02 0.05 0.33 0.33 0.41 0.58 0.62 0.62 0.55 0.54 0.53 0.53 0.51 0.58 0.58 0.68 0.85 1.17 1.17 1.11 0.97 0.78 0.84 0.84 0.86 0.81 0.33 0.33 0.19 0.17 0.06 0.06 0.01 0.01 0.01 0.06 0.12 0.16 0.16 0.12 0.13 0.09 0.08 0.08 0.06 0.03 0.00 0.00 0.01 0.04 0.14 0.14 0.07 0.15 0.15 0.15 0.16 0.13 0.13 0.09 0.10
-0.22 -0.22 -0.19 -0.17 -0.15 -0.15 -0.10 -0.11 -0.04 -0.04 -0.01 0.01 -0.03 -0.03 -0.06 -0.08 -0.08 -0.08 -0.14 -0.18 -0.18 -0.28 -0.34 -0.37 -0.38 -0.38 -0.80 -1.01 -0.99 -0.99 -1.03 -0.62 -0.50 -0.50 -0.58 -0.22 -0.22 -0.08 -0.10 -0.04 -0.04 -0.05 -0.03 0.01 0.09 0.09 0.46 0.64 0.66 0.66 0.66 0.59 0.54 0.54 0.51 0.65 0.65 0.75 0.83 0.92 0.92 1.09 1.04 0.78 0.66 0.66 0.65 0.76 0.63 0.63 0.27 0.23 0.15 0.15 0.07 0.02 0.02 0.06 0.11 0.18 0.18 0.15 0.12 0.10 0.12 0.12 0.08 0.04 0.03 0.03 0.00 0.02 0.10 0.10 0.07 0.04 0.04 0.13 0.15 0.12 0.12 0.10 0.08
-0.25 -0.23 -0.21 -0.16 -0.14 -0.14 -0.13 -0.11 -0.07 -0.07 -0.02 0.01 -0.02 -0.02 -0.07 -0.07 -0.07 -0.05 -0.13 -0.14 -0.14 -0.21 -0.25 -0.20 -0.26 -0.26 -0.40 -0.96 -1.00 -1.00 -1.15 -0.71 -0.50 -0.50 -0.38 -0.30 -0.30 -0.08 -0.05 -0.14 -0.14 -0.12 -0.06 -0.02 -0.02 -0.02 0.26 0.44 0.60 0.60 0.69 0.67 0.60 0.60 0.65 0.64 0.64 0.83 0.86 1.00 1.00 1.00 1.08 0.94 0.62 0.62 0.44 0.59 0.61 0.61 0.46 0.21 0.16 0.16 0.11 0.08 0.08 0.06 0.09 0.15 0.15 0.14 0.14 0.12 0.10 0.10 0.08 0.02 0.01 0.01 0.00 0.00 0.06 0.06 0.04 0.03 0.03 0.10 0.13 0.12 0.12 0.09 0.09
-0.24 -0.27 -0.25 -0.21 -0.14 -0.14 -0.13 -0.13 -0.08 -0.08 -0.05 -0.01 0.02 0.02 -0.05 -0.07 -0.07 -0.07 -0.13 -0.17 -0.17 -0.17 -0.25 -0.14 -0.15 -0.15 -0.26 -0.79 -1.06 -1.06 -1.06 -0.90 -0.63 -0.63 -0.40 -0.22 -0.22 -0.18 -0.39 -0.34 -0.34 -0.23 -0.06 -0.02 -0.01 -0.01 0.01 0.12 0.27 0.27 0.45 0.62 0.65 0.65 0.74 0.78 0.78 0.98 0.99 1.03 1.03 0.97 1.03 1.06 0.87 0.87 0.81 0.41 0.49 0.49 0.44 0.29 0.11 0.11 0.08 0.08 0.08 0.06 0.07 0.13 0.13 0.12 0.12 0.13 0.11 0.11 0.08 0.05 0.00 0.00 0.00 0.00 0.00 0.00 0.04 0.03 0.03 0.05 0.10 0.12 0.12 0.13 0.09
-0.30 -0.29 -0.24 -0.26 -0.16 -0.16 -0.14 -0.13 -0.12 -0.12 -0.09 -0.06 -0.03 -0.03 -0.04 -0.07 -0.07 -0.08 -0.10 -0.17 -0.17 -0.21 -0.17 -0.22 -0.10 -0.10 -0.13 -0.32 -0.64 -0.64 -0.78 -0.73 -0.71 -0.71 -0.65 -0.31 -0.31 -0.25 -0.26 -0.17 -0.17 -0.12 -0.08 -0.02 -0.00 -0.00 0.00 0.00 0.05 0.05 0.13 0.33 0.42 0.42 0.56 0.77 0.77 0.84 1.09 1.09 1.09 1.01 0.91 1.08 1.11 1.11 1.11 0.76 0.40 0.40 0.39 0.31 0.17 0.17 0.05 0.06 0.06 0.06 0.02 0.10 0.10 0.12 0.12 0.12 0.10 0.10 0.09 0.03 0.02 0.02 0.01 0.00 0.00 0.00 0.03 0.00 0.00 0.02 0.06 0.08 0.08 0.13 0.13
-0.31 -0.31 -0.24 -0.23 -0.21 -0.21 -0.18 -0.13 -0.12 -0.12 -0.11 -0.10 -0.07 -0.07 -0.04 -0.05 -0.05 -0.08 -0.08 -0.14 -0.14 -0.18 -0.22 -0.27 -0.30 -0.30 -0.18 -0.18 -0.32 -0.32 -0.57 -0.54 -0.56 -0.56 -0.64 -0.38 -0.38 -0.23 -0.10 -0.14 -0.14 -0.18 -0.14 -0.05 -0.01 -0.01 0.00 0.00 0.01 0.01 0.02 0.10 0.10 0.10 0.38 0.54 0.54 0.72 0.91 1.04 1.04 1.10 0.99 0.90 1.08 1.08 1.19 1.06 0.73 0.73 0.44 0.45 0.29 0.29 0.14 0.09 0.09 0.10 0.05 0.04 0.04 0.10 0.14 0.14 0.13 0.13 0.15 0.05 0.03 0.03 0.02 0.01 0.00 0.00 0.00 0.00 0.00 0.00 0.01 0.01 0.01 0.10 0.12
-0.17 -0.27 -0.29 -0.21 -0.24 -0.24 -0.22 -0.17 -0.10 -0.10 -0.09 -0.09 -0.09 -0.09 -0.07 -0.05 -0.05 -0.06 -0.09 -0.13 -0.13 -0.17 -0.21 -0.25 -0.36 -0.36 -0.29 -0.23 -0.29 -0.29 -0.30 -0.42 -0.36 -0.36 -0.49 -0.42 -0.42 -0.25 -0.34 -0.15 -0.15 -0.22 -0.25 -0.17 -0.01 -0.01 0.00 0.00 0.01 0.01 0.01 0.03 0.08 0.08 0.13 0.39 0.39 0.57 0.70 0.72 0.72 0.96 0.97 0.89 0.80 0.80 0.95 1.03 0.89 0.89 0.71 0.52 0.42 0.42 0.29 0.27 0.27 0.19 0.10 0.04 0.04 0.06 0.11 0.14 0.15 0.15 0.17 0.17 0.04 0.04 0.05 0.03 0.00 0.00 0.00 0.00 0.00 0.00 0.00 0.00 0.00 0.08 0.13
-0.13 -0.20 -0.25 -0.27 -0.21 -0.21 -0.25 -0.24 -0.16 -0.16 -0.08 -0.08 -0.11 -0.11 -0.11 -0.13 -0.13 -0.11 -0.12 -0.15 -0.15 -0.19 -0.22 -0.25 -0.31 -0.31 -0.31 -0.37 -0.34 -0.34 -0.22 -0.25 -0.33 -0.33 -0.36 -0.28 -0.28 -0.23 -0.46 -0.36 -0.36 0.09 0.00 -0.04 0.14 0.14 0.07 0.01 -0.00 -0.00 -0.00 0.03 0.07 0.07 0.10 0.19 0.19 0.43 0.56 0.63 0.63 0.72 0.84 0.83 0.72 0.72 0.68 0.84 0.84 0.84 0.76 0.62 0.39 0.39 0.31 0.25 0.25 0.20 0.22 0.09 0.09 0.07 0.05 0.08 0.17 0.17 0.19 0.21 0.18 0.18 0.07 0.06 0.05 0.05 0.04 0.00 0.00 0.00 0.00 0.00 0.00 0.00 0.12
-0.06 -0.18 -0.21 -0.26 -0.25 -0.25 -0.19 -0.24 -0.23 -0.23 -0.12 -0.09 -0.10 -0.10 -0.13 -0.18 -0.18 -0.18 -0.17 -0.17 -0.17 -0.20 -0.21 -0.26 -0.29 -0.29 -0.39 -0.48 -0.38 -0.38 -0.39 -0.13 -0.15 -0.15 -0.27 -0.29 -0.29 -0.25 -0.32 -0.37 -0.37 0.14 0.19 0.19 0.11 0.11 0.03 -0.00 0.01 0.01 0.01 0.03 0.04 0.04 0.11 0.19 0.19 0.34 0.45 0.46 0.46 0.60 0.77 0.78 0.75 0.75 0.65 0.60 0.73 0.73 0.65 0.67 0.48 0.48 0.30 0.23 0.23 0.19 0.20 0.16 0.16 0.11 0.05 0.04 0.08 0.08 0.17 0.21 0.23 0.23 0.23 0.08 0.05 0.05 0.06 0.04 0.04 0.00 0.00 0.00 0.00 0.00 0.02
-0.03 -0.08 -0.15 -0.21 -0.24 -0.24 -0.15 -0.17 -0.22 -0.22 -0.22 -0.08 -0.09 -0.09 -0.11 -0.15 -0.15 -0.23 -0.21 -0.18 -0.18 -0.21 -0.24 -0.31 -0.33 -0.33 -0.39 -0.65 -0.59 -0.59 -0.42 -0.16 -0.05 -0.05 -0.15 -0.31 -0.31 -0.16 -0.25 -0.39 -0.39 -0.45 -0.07 0.07 -0.05 -0.05 0.03 0.02 0.02 0.02 0.02 0.03 0.04 0.04 0.07 0.12 0.12 0.22 0.29 0.42 0.42 0.55 0.62 0.77 0.75 0.75 0.76 0.62 0.52 0.52 0.37 0.48 0.53 0.53 0.43 0.31 0.31 0.25 0.19 0.19 0.19 0.12 0.07 0.04 0.05 0.05 0.07 0.18 0.24 0.24 0.25 0.20 0.10 0.10 0.10 0.05 0.05 0.03 0.00 -0.00 -0.00 -0.00 0.02
-0.01 -0.03 -0.08 -0.13 -0.22 -0.22 -0.23 -0.17 -0.18 -0.18 -0.22 -0.10 -0.09 -0.09 -0.10 -0.15 -0.15 -0.24 -0.26 -0.22 -0.22 -0.18 -0.30 -0.33 -0.33 -0.33 -0.39 -0.65 -0.62 -0.62 -0.46 -0.26 -0.07 -0.07 -0.09 -0.23 -0.23 -0.08 -0.16 -0.34 -0.34 -0.43 -0.44 -0.17 -0.16 -0.16 -0.04 0.03 0.05 0.05 0.06 0.09 0.10 0.10 0.05 0.05 0.05 0.11 0.11 0.33 0.33 0.52 0.61 0.65 0.67 0.67 0.71 0.74 0.59 0.59 0.62 0.23 0.25 0.25 0.28 0.08 0.08 0.17 0.20 0.22 0.22 0.14 0.13 0.05 0.04 0.04 0.05 0.09 0.19 0.19 0.21 0.25 0.19 0.19 0.19 0.09 0.09 0.03 0.00 -0.01 -0.01 -0.01 0.02
-0.01 -0.01 -0.04 -0.08 -0.16 -0.16 -0.24 -0.23 -0.17 -0.17 -0.15 -0.18 -0.10 -0.10 -0.13 -0.13 -0.13 -0.22 -0.28 -0.29 -0.29 -0.26 -0.29 -0.33 -0.36 -0.36 -0.41 -0.49 -0.51 -0.51 -0.42 -0.26 -0.19 -0.19 -0.16 -0.13 -0.13 -0.01 -0.09 -0.26 -0.26 -0.28 -0.33 -0.27 -0.29 -0.29 -0.13 0.01 0.12 0.12 0.11 0.19 0.16 0.16 0.13 0.04 0.04 0.04 0.05 0.11 0.11 0.47 0.66 0.66 0.66 0.66 0.70 0.73 0.74 0.74 0.83 0.65 0.18 0.18 0.12 0.06 0.06 0.04 0.08 0.13 0.13 0.09 0.08 0.04 0.03 0.03 0.03 0.07 0.09 0.09 0.08 0.22 0.25 0.25 0.27 0.24 0.24 0.17 0.02 0.01 0.01 -0.01 0.02